Location: São Paulo
(23.5507°S, 46.6334°W)
Time: 05:29:27
(UTC-03:00)

Vanguard 1 - Visible Passes

Search period start: 17 February 2026 00:00
Search period end: 27 February 2026 00:00
Orbit: 652 x 3820 km, 34.3° (Epoch: 13 February)

Date Brightness Start Highest point End Pass type
(mag) Time Alt. Az. Time Alt. Az. Time Alt. Az.
17 Feb 11.4 02:23:24 73° E 02:23:24 73° E 02:31:12 10° ESE visible
17 Feb 11.4 04:35:57 17° W 04:44:15 45° SSW 04:50:31 10° SE visible
18 Feb 13.3 00:28:50 14° E 00:28:50 14° E 00:29:45 10° ESE visible
18 Feb 11.4 02:41:23 80° SW 02:41:32 81° SSW 02:50:30 10° ESE visible
18 Feb 11.5 04:53:56 10° W 05:03:57 39° SSW 05:09:52 10° ESE visible
18 Feb 14.0 21:55:19 10° N 21:56:46 12° N 21:56:46 12° N visible
19 Feb 12.9 00:46:47 22° ESE 00:46:47 22° ESE 00:49:32 10° ESE visible
19 Feb 11.4 02:59:20 62° WSW 03:01:10 68° SSW 03:09:48 10° ESE visible
19 Feb 11.5 05:14:27 10° WSW 05:23:44 37° S 05:29:20 10° ESE visible
19 Feb 13.9 22:12:55 10° NNW 22:15:26 14° NNW 22:15:26 14° NNW visible
20 Feb 12.6 01:04:43 32° ESE 01:04:43 32° ESE 01:09:07 10° ESE visible
20 Feb 11.6 03:17:15 46° WSW 03:20:50 58° SSW 03:29:06 10° ESE visible
20 Feb 13.8 20:17:34 10° NNE 20:21:33 12° NNE 20:21:33 12° NNE visible
20 Feb 13.9 22:31:06 10° NNW 22:34:11 15° NNW 22:34:11 15° NNW visible
21 Feb 12.3 01:22:36 44° ESE 01:22:36 44° ESE 01:28:34 10° ESE visible
21 Feb 11.7 03:35:09 34° WSW 03:40:36 51° SSW 03:48:27 10° ESE visible
21 Feb 13.7 20:31:37 10° N 20:40:25 17° NNE 20:40:25 17° NNE visible
21 Feb 13.7 22:49:45 10° NNW 23:27:57 - ESE 22:53:03 16° NNW visible
22 Feb 12.0 01:40:29 57° SE 01:40:29 57° SE 01:47:57 10° ESE visible
22 Feb 11.7 03:53:02 25° WSW 04:00:26 46° SSW 04:07:51 10° ESE visible
22 Feb 13.5 20:48:13 10° N 20:59:24 23° NNE 20:59:24 23° NNE visible
22 Feb 13.5 23:08:47 10° NW 23:45:48 12° ESE 23:46:15 10° ESE visible
23 Feb 11.9 01:58:20 66° SSE 01:58:20 66° SSE 02:07:18 10° ESE visible
23 Feb 11.7 04:10:53 17° WSW 04:20:19 44° S 04:27:21 10° ESE visible
23 Feb 13.4 21:05:48 10° NNW 21:18:30 29° NNE 21:18:30 29° NNE visible
23 Feb 13.2 23:28:11 10° NW 00:03:39 19° ESE 00:05:55 10° ESE visible
24 Feb 11.9 02:16:11 63° SSW 02:16:20 63° SSW 02:26:41 10° ESE visible
24 Feb 11.7 04:28:43 11° WSW 04:40:14 44° S 04:46:56 10° ESE visible
24 Feb 13.7 19:12:10 10° NNE 19:18:22 12° NE 19:24:37 10° ENE visible
24 Feb 13.2 21:23:56 10° NNW 21:37:44 36° N 21:37:44 36° N visible
24 Feb 13.0 23:47:55 10° WNW 00:21:28 27° ESE 00:25:27 10° ESE visible
25 Feb 12.0 02:34:00 52° SW 02:36:15 56° SSW 02:46:07 10° ESE visible
25 Feb 11.5 04:48:42 10° WSW 05:00:09 46° S 05:06:33 10° ESE visible
25 Feb 13.5 19:25:40 10° N 19:38:29 18° NE 19:44:25 16° ENE visible
25 Feb 13.1 21:42:31 10° NNW 21:57:06 42° N 21:57:06 42° N visible
26 Feb 12.7 00:07:58 10° WNW 00:39:17 36° ESE 00:44:55 10° ESE visible
26 Feb 12.0 02:51:50 42° SW 02:56:15 52° SSW 03:05:37 10° ESE visible
26 Feb 11.3 05:08:55 10° WSW 05:20:00 52° S 05:26:09 10° E visible
26 Feb 13.3 19:42:08 10° N 19:58:21 25° NE 20:03:54 23° ENE visible
26 Feb 13.0 22:01:28 10° NW 22:44:35 - ESE 22:16:36 47° NNW visible
